Regional Weather Roundup
Issued by NWS Newport/Morehead, NC

Current Version | Previous Version | Text Only | Print | Product List | Glossary On
Versions: 1 2 3 4 5 6 7 8 9 10 11 12 13 14 15 16 17 18 19 20 21 22 23 24 25 26 27 28 29 30 31 32 33 34 35 36 37 38 39 40 41 42 43 44 45 46 47 48 49 50
034
ASUS42 KMHX 270525
RWRMHX
WEATHER ROUNDUP FOR EASTERN NORTH CAROLINA
NATIONAL WEATHER SERVICE NEWPORT/MOREHEAD CITY NC
1200 AM EST MON FEB 27 2017

NOTE: "FAIR" INDICATES FEW OR NO CLOUDS BELOW 12,000 FEET
WITH NO SIGNIFICANT WEATHER AND/OR OBSTRUCTIONS TO VISIBILITY

NCZ015>017-031-032-045>047-102-103-270600-
NORTH COAST

CITY           SKY/WX    TMP DP  RH WIND       PRES   REMARKS
EDENTON        PTCLDY    38  33  81 CALM      30.35R
ELIZABETH CITY MOCLDY    43  39  86 SE3       30.34R
KITTY HAWK     NOT AVBL
MANTEO         PTCLDY    40  37  86 CALM      30.36R

$$

NCZ045>047-081-094-103-104-270600-
CENTRAL COAST

CITY           SKY/WX    TMP DP  RH WIND       PRES   REMARKS
FRISCO         CLEAR     40  34  79 E3        30.33S

$$

NCZ095-097-098-100-101-270600-
SOUTHERN COAST

CITY           SKY/WX    TMP DP  RH WIND       PRES   REMARKS
BEAUFORT       CLEAR     41  34  76 CALM      30.34R
CEDAR ISLAND   NOT AVBL
JACKSONVILLE   CLEAR     38  36  92 CALM      30.34R
PINEY ISLAND   CLEAR    N/A N/A N/A N6        30.33R
WILMINGTON     CLEAR     39  36  89 CALM      30.34R


$$

NCZ011>013-027>030-043-044-078>080-089-090>093-098-270600-
COASTAL PLAIN

CITY           SKY/WX    TMP DP  RH WIND       PRES   REMARKS
AHOSKIE          N/A     31  28  88 CALM      30.34R
CLINTON        PTCLDY    37  32  83 CALM      30.34R
ELIZABETHTOWN  PTCLDY    38  32  78 CALM      30.33S
GOLDSBORO      CLEAR     36  28  71 CALM      30.32R
GREENVILLE     MOCLDY    36  32  87 CALM      30.34R
HAVELOCK       NOT AVBL
KENANSVILLE    CLEAR     32  28  86 CALM      30.35R
KINSTON        CLEAR     33  29  83 CALM      30.35R
NEW BERN       CLEAR     36  31  82 CALM      30.35R
RICHLANDS      CLEAR     32  29  88 CALM      30.35R
ROCKY MOUNT    CLEAR     33  30  88 CALM      30.33R
WASHINGTON     PTCLDY    37  30  76 CALM      30.34S
WHITEVILLE     CLEAR     39  33  81 CALM      30.34R

$$

AMZ130-135-150-152-154-156-158-170-250-252-270-ANZ085-086-088-633-658-670-270600-
MARINE OBSERVATIONS

STATION/POSITION TIME  TEMP    WIND        PRES    WAVE   SWELL
                       AIR SEA DIR/SP/G            HT/PER HT/PER
                 (UTC) (F)     (DEG/KT/KT) (MB)    (FT/S) (FT/S)
CHESAPEAKE LIGHT NOT AVBL
64 E VA BEACH    0450   45 51   50/  6/  8 1027.0    4/ 9   3/ 9
DUCK             0500   46 49  100/  8/  9 1027.1
2 E DUCK         0500      49                N/A     3/10   2/11
OREGON INLET     0500      57   60/  4/  6 1027.4
13E OREGON INLT  NOT AVBL
HATTERAS CG      0500   51 61     CALM     1026.9
DIAMOND BUOY     0450   56 72  340/  6/ 10 1027.3    4/ 8   3/ 8
CAPE LOOKOUT     0500   54      10/  5/  6 1027.0
BEAUFORT LAB     0500   50 62   30/  3/  3 1026.4
30 SE NEW RVR IN 0508   56     320/  2/  4 1027.5
30 SE NEW RVR IN 0513      65                N/A     3/ 9   2/11
27 SE WRIGHTSVLE 0508   57 62  320/  4/  8 1026.5
5 SE WRIGHTSVLE  0408   55 58  270/  6/  8 1026.8
225 S CAPE HAT   0450   64 71   10/ 10/ 14 1025.9    5/ 7   5/ 7
41 SE CHARLESTON 0450   60 69   90/  6/ 10 1026.2    3/ 9   3/ 9

$$




USA.gov is the U.S. government's official web portal to all federal, state and local government web resources and services.